Change the Weather History Date:

Monday, February 10, 2014

  Actual Average Record
Temperature  
Mean Temperature 15 °F -  
Max Temperature 27 °F 36 °F 53 °F (2002)
Min Temperature 1 °F 17 °F -2 °F (2013)
Degree Days  
Heating Degree Days 50    
Moisture  
Dew Point 9 °F    
Average Humidity 76    
Maximum Humidity 100    
Minimum Humidity 43    
Precipitation  
Precipitation 0.00 in - - ()
Sea Level Pressure  
Sea Level Pressure 30.01 in    
Wind  
Wind Speed 5 mph (West)    
Max Wind Speed 16 mph    
Max Gust Speed 22 mph    
Visibility 7 miles    
Events Fog , Snow    
Averages and records for this station are not official NWS values.
T = Trace of Precipitation, MM = Missing Value Source: NWS Daily Summary

Daily Weather History Graph

Daily Weather History Graph

Search for Another Location

Airport or City:

Trip Planner

Search our weather history database for the weather conditions in past years. The results will help you decide how hot, cold, wet, or windy it might be!

Date:

Astronomy

Feb. 10, 2014 Rise Set
Actual Time 6:47 AM EST 5:10 PM EST
Civil Twilight 6:18 AM EST 5:39 PM EST
Nautical Twilight 5:45 AM EST 6:12 PM EST
Astronomical Twilight 5:12 AM EST 6:45 PM EST
Moon 1:35 PM EST (2/10) 3:40 AM EST (2/10)
Length of Visible Light 11h 21m
Length of Day
10h 23m
Waxing Gibbous, 84% of the Moon is Illuminated
Feb 10
Waxing Gibbous
Feb 14
Full
Feb 22
Last Quarter
Mar 1
New
Mar 8
First Quarter

Hourly Weather History & Observations

Time (EST) Temp. Windchill Dew Point Humidity Pressure Visibility Wind Dir Wind Speed Gust Speed Precip Events Conditions
12:08 AM 24.1 °F 17.0 °F 21.9 °F 91% 29.95 in 2.0 mi WSW 5.8 mph - 0.00 in Snow Light Snow
12:21 AM 24.1 °F 19.7 °F 21.9 °F 91% 29.95 in 4.0 mi WSW 3.5 mph - 0.00 in Snow Light Snow
12:53 AM 24.1 °F - 21.0 °F 88% 29.94 in 5.0 mi Calm Calm - 0.00 in Snow Light Snow
1:53 AM 19.9 °F 14.9 °F 19.0 °F 96% 29.93 in 8.0 mi SSW 3.5 mph - 0.00 in   Scattered Clouds
2:03 AM 17.1 °F 11.7 °F 17.1 °F 100% 29.92 in 1.5 mi South 3.5 mph - N/A   Partly Cloudy
2:35 AM 10.9 °F 4.7 °F 10.0 °F 96% 29.92 in 3.0 mi South 3.5 mph - N/A   Clear
2:43 AM 10.9 °F 4.7 °F 10.0 °F 96% 29.91 in 1.8 mi South 3.5 mph - N/A   Clear
2:51 AM 10.4 °F 4.0 °F 8.6 °F 92% 29.91 in 0.2 mi South 3.5 mph - N/A Fog Light Freezing Fog
2:53 AM 10.9 °F 4.7 °F 9.0 °F 92% 29.92 in 0.2 mi South 3.5 mph - N/A Fog Light Freezing Fog
3:26 AM 9.0 °F - 9.0 °F 100% 29.91 in 2.0 mi Calm Calm - N/A   Clear
3:33 AM 9.0 °F - 8.1 °F 96% 29.91 in 8.0 mi Calm Calm - N/A   Clear
3:53 AM 6.1 °F -0.9 °F 3.9 °F 91% 29.91 in 2.5 mi East 3.5 mph - N/A   Clear
4:09 AM 6.1 °F - 1.9 °F 83% 29.91 in 7.0 mi Calm Calm - N/A   Clear
4:53 AM 7.0 °F 0.1 °F 3.9 °F 87% 29.93 in 9.0 mi SW 3.5 mph - N/A   Clear
5:53 AM 12.0 °F - 10.0 °F 92% 29.94 in 7.0 mi Calm Calm - N/A   Clear
6:53 AM 18.0 °F 7.7 °F 14.0 °F 84% 29.96 in 10.0 mi West 8.1 mph - N/A   Clear
7:53 AM 18.0 °F 7.7 °F 15.1 °F 88% 29.99 in 10.0 mi West 8.1 mph - N/A   Clear
8:53 AM 21.9 °F 9.8 °F 12.9 °F 68% 30.01 in 10.0 mi NW 12.7 mph - N/A   Clear
9:53 AM 24.1 °F 12.0 °F 12.0 °F 60% 30.04 in 10.0 mi NW 13.8 mph 21.9 mph N/A   Clear
10:53 AM 26.1 °F 14.0 °F 10.0 °F 51% 30.05 in 10.0 mi WNW 15.0 mph - N/A   Clear
11:53 AM 27.0 °F 16.7 °F 9.0 °F 47% 30.02 in 10.0 mi NW 11.5 mph 21.9 mph N/A   Clear
12:53 PM 27.0 °F 16.1 °F 9.0 °F 47% 30.02 in 10.0 mi NW 12.7 mph 19.6 mph N/A   Clear
1:53 PM 27.0 °F 14.7 °F 8.1 °F 45% 30.03 in 10.0 mi WNW 16.1 mph - N/A   Clear
2:53 PM 27.0 °F 16.1 °F 8.1 °F 45% 30.04 in 10.0 mi NW 12.7 mph - N/A   Partly Cloudy
3:53 PM 26.1 °F 15.6 °F 6.1 °F 43% 30.06 in 10.0 mi WNW 11.5 mph - N/A   Clear
4:53 PM 25.0 °F 12.6 °F 6.1 °F 45% 30.09 in 10.0 mi NW 15.0 mph 20.7 mph N/A   Clear
5:53 PM 23.0 °F 15.8 °F 5.0 °F 46% 30.13 in 10.0 mi NW 5.8 mph - N/A   Clear
6:53 PM 19.9 °F 14.9 °F 5.0 °F 52% 30.15 in 10.0 mi NW 3.5 mph - N/A   Clear
7:53 PM 10.0 °F - 3.9 °F 76% 30.17 in 10.0 mi Calm Calm - N/A   Clear
8:53 PM 8.1 °F - 3.0 °F 80% 30.19 in 10.0 mi Calm Calm - N/A   Clear
9:53 PM 7.0 °F - 1.9 °F 80% 30.20 in 10.0 mi Calm Calm - N/A   Clear
10:53 PM 3.9 °F - -0.0 °F 84% 30.21 in 10.0 mi Calm Calm - N/A   Clear
11:53 PM 1.9 °F - -2.0 °F 83% 30.22 in 10.0 mi Calm Calm - N/A   Clear